, MO

(GMT )
Kansas City

Weather History for KMKC - October, 2012

Change the Weather History Date:

Friday, October 5, 2012

  Actual Average Record
Temperature  
Mean Temperature 46 °F -  
Max Temperature 52 °F 70 °F 89 °F (2007)
Min Temperature 39 °F 50 °F 39 °F (2012)
Degree Days  
Heating Degree Days 18    
Moisture  
Dew Point 34 °F    
Average Humidity 61    
Maximum Humidity 77    
Minimum Humidity 46    
Precipitation  
Precipitation 0.01 in - - ()
Sea Level Pressure  
Sea Level Pressure 30.27 in    
Wind  
Wind Speed 8 mph (NNE)    
Max Wind Speed 20 mph    
Max Gust Speed 25 mph    
Visibility 10 miles    
Events      
Averages and records for this station are not official NWS values.
T = Trace of Precipitation, MM = Missing Value Source: NWS Daily Summary

Daily Weather History Graph

Daily Weather History Graph

Search for Another Location

Airport or City:

Trip Planner

Search our weather history database for the weather conditions in past years. The results will help you decide how hot, cold, wet, or windy it might be!

Date:

Astronomy

Oct. 05, 2012 Rise Set
Actual Time 7:18 AM CDT 6:53 PM CDT
Civil Twilight 6:51 AM CDT 7:20 PM CDT
Nautical Twilight 6:20 AM CDT 7:51 PM CDT
Astronomical Twilight 5:49 AM CDT 8:22 PM CDT
Moon 10:20 PM CDT (10/5) 12:24 PM CDT (10/5)
Length of Visible Light 12h 28m
Length of Day
11h 35m
Waning Gibbous, 74% of the Moon is Illuminated
Oct 5
Waning Gibbous
Oct 8
Last Quarter
Oct 15
New
Oct 21
First Quarter
Oct 29
Full

Hourly Weather History & Observations

Time (CDT) Temp. Windchill Dew Point Humidity Pressure Visibility Wind Dir Wind Speed Gust Speed Precip Events Conditions
12:54 AM 52.0 °F - 43.0 °F 71% 30.25 in 10.0 mi NNE 5.8 mph - 0.00 in   Overcast
1:54 AM 51.1 °F - 41.0 °F 68% 30.25 in 10.0 mi NNE 8.1 mph - 0.01 in   Overcast
2:54 AM 48.9 °F - 39.0 °F 69% 30.24 in 10.0 mi NNE 6.9 mph - N/A   Clear
3:54 AM 48.9 °F - 37.9 °F 66% 30.27 in 10.0 mi North 5.8 mph - N/A   Clear
4:54 AM 48.0 °F - 35.1 °F 61% 30.27 in 10.0 mi NNE 10.4 mph - N/A   Mostly Cloudy
5:54 AM 48.0 °F - 35.1 °F 61% 30.27 in 10.0 mi NNE 9.2 mph - N/A   Mostly Cloudy
6:54 AM 48.0 °F - 34.0 °F 58% 30.28 in 10.0 mi NNE 9.2 mph - N/A   Overcast
7:54 AM 48.0 °F - 34.0 °F 58% 30.26 in 10.0 mi NE 6.9 mph - N/A   Overcast
8:54 AM 48.0 °F - 34.0 °F 58% 30.26 in 10.0 mi NE 8.1 mph - N/A   Overcast
9:54 AM 48.0 °F - 34.0 °F 58% 30.27 in 10.0 mi NNE 12.7 mph - N/A   Overcast
10:54 AM 48.0 °F - 33.1 °F 56% 30.27 in 10.0 mi NNE 11.5 mph - N/A   Overcast
11:54 AM 48.2 °F - 33.8 °F 58% 30.28 in 10.0 mi NNE 12.7 mph - N/A   Overcast
12:54 PM 48.9 °F - 32.0 °F 52% 30.30 in 10.0 mi North 11.5 mph - N/A   Overcast
1:54 PM 51.1 °F - 30.9 °F 46% 30.28 in 10.0 mi North 12.7 mph 19.6 mph N/A   Overcast
2:54 PM 51.1 °F - 32.0 °F 48% 30.27 in 10.0 mi NNE 19.6 mph 25.3 mph N/A   Overcast
3:54 PM 50.0 °F - 34.0 °F 54% 30.25 in 10.0 mi North 16.1 mph 23.0 mph N/A   Overcast
4:54 PM 48.9 °F - 32.0 °F 52% 30.25 in 10.0 mi Variable 4.6 mph - N/A   Overcast
5:54 PM 48.9 °F - 32.0 °F 52% 30.26 in 10.0 mi NNE 9.2 mph - N/A   Clear
6:54 PM 46.0 °F 41.4 °F 33.1 °F 61% 30.27 in 10.0 mi North 9.2 mph - N/A   Clear
7:54 PM 43.0 °F 41.3 °F 32.0 °F 65% 30.29 in 10.0 mi North 3.5 mph - N/A   Clear
8:54 PM 42.1 °F - 32.0 °F 67% 30.30 in 10.0 mi Calm Calm - N/A   Clear
9:54 PM 43.0 °F - 34.0 °F 71% 30.29 in 10.0 mi Calm Calm - N/A   Clear
10:54 PM 41.0 °F 38.0 °F 33.1 °F 73% 30.31 in 10.0 mi WSW 4.6 mph - N/A   Clear
11:54 PM 39.9 °F 37.8 °F 33.1 °F 77% 30.31 in 10.0 mi NW 3.5 mph - N/A   Clear